Hourly Weather Mundelein

Today, 26 September, Sunday

Time Temperature Precipitation Wind Pressure Humidity
00:00 +12°C° 0 mm 3 mps 740 mmHg 36%
01:00 +12°C° 0 mm 4 mps 739 mmHg 37%
02:00 +12°C° 0 mm 4 mps 739 mmHg 38%
03:00 +12°C° 0 mm 4 mps 739 mmHg 39%
04:00 +12°C° 0 mm 4 mps 739 mmHg 39%
05:00 +12°C° 0 mm 4 mps 739 mmHg 39%
06:00 +12°C° 0 mm 4 mps 739 mmHg 39%
07:00 +14°C° 0 mm 5 mps 739 mmHg 38%
08:00 +16°C° 0 mm 5 mps 739 mmHg 37%
09:00 +20°C° 0 mm 6 mps 739 mmHg 36%
10:00 +22°C° 0 mm 6 mps 739 mmHg 35%
11:00 +24°C° 0 mm 6 mps 739 mmHg 33%
12:00 +27°C° 0 mm 6 mps 738 mmHg 31%
13:00 +27°C° 0 mm 6 mps 738 mmHg 32%
14:00 +27°C° 0 mm 6 mps 737 mmHg 34%
15:00 +27°C° 0 mm 6 mps 737 mmHg 35%
16:00 +26°C° 0 mm 6 mps 736 mmHg 36%
17:00 +26°C° 0 mm 6 mps 736 mmHg 38%
18:00 +24°C° 0 mm 6 mps 736 mmHg 40%
19:00 +23°C° 0 mm 6 mps 736 mmHg 41%
20:00 +23°C° 0 mm 7 mps 736 mmHg 43%
21:00 +22°C° 0 mm 7 mps 736 mmHg 44%
22:00 +22°C° 0 mm 7 mps 736 mmHg 46%
23:00 +21°C° 0 mm 7 mps 736 mmHg 48%

Tomorrow, 27 September, Monday

Time Temperature Precipitation Wind Pressure Humidity
00:00 +21°C° 0 mm 6 mps 735 mmHg 51%
01:00 +21°C° 0 mm 6 mps 735 mmHg 53%
02:00 +20°C° 0 mm 6 mps 735 mmHg 55%
03:00 +20°C° 0 mm 6 mps 734 mmHg 57%
04:00 +20°C° 0 mm 6 mps 734 mmHg 58%
05:00 +20°C° 0 mm 5 mps 734 mmHg 60%
06:00 +19°C° 0 mm 5 mps 734 mmHg 61%
07:00 +21°C° 0 mm 5 mps 734 mmHg 57%
08:00 +23°C° 0 mm 5 mps 735 mmHg 53%
09:00 +25°C° 0 mm 5 mps 735 mmHg 49%
10:00 +27°C° 0 mm 5 mps 735 mmHg 43%
11:00 +29°C° 0 mm 4 mps 735 mmHg 36%
12:00 +32°C° 0 mm 4 mps 734 mmHg 30%
13:00 +32°C° 0 mm 4 mps 734 mmHg 30%
14:00 +33°C° 0 mm 4 mps 734 mmHg 29%
15:00 +33°C° 0 mm 3 mps 734 mmHg 29%
16:00 +28°C° 0 mm 4 mps 734 mmHg 44%
17:00 +25°C° 0 mm 5 mps 735 mmHg 59%
18:00 +20°C° 0 mm 5 mps 735 mmHg 73%
19:00 +19°C° 0 mm 5 mps 736 mmHg 76%
20:00 +18°C° 0 mm 4 mps 736 mmHg 80%
21:00 +18°C° 0 mm 4 mps 737 mmHg 83%
22:00 +17°C° 0 mm 4 mps 737 mmHg 81%
23:00 +17°C° 0 mm 4 mps 737 mmHg 79%

Day after tomorrow, 28 September, Tuesday

Time Temperature Precipitation Wind Pressure Humidity
00:00 +17°C° 0 mm 4 mps 737 mmHg 77%
01:00 +16°C° 0 mm 3 mps 737 mmHg 80%
02:00 +16°C° 0 mm 3 mps 738 mmHg 83%
03:00 +16°C° 0 mm 3 mps 738 mmHg 86%
04:00 +16°C° 0 mm 3 mps 738 mmHg 87%
05:00 +16°C° 0 mm 3 mps 739 mmHg 88%
06:00 +16°C° 0 mm 3 mps 739 mmHg 89%
07:00 +17°C° 0 mm 3 mps 740 mmHg 80%
08:00 +19°C° 0 mm 4 mps 740 mmHg 71%
09:00 +20°C° 0 mm 4 mps 741 mmHg 62%
10:00 +21°C° 0 mm 4 mps 740 mmHg 57%
11:00 +22°C° 0 mm 4 mps 740 mmHg 53%
12:00 +22°C° 0 mm 4 mps 740 mmHg 48%
13:00 +22°C° 0 mm 3 mps 740 mmHg 47%
14:00 +22°C° 0 mm 3 mps 740 mmHg 46%
15:00 +22°C° 0 mm 3 mps 740 mmHg 45%
16:00 +20°C° 0 mm 2 mps 740 mmHg 50%
17:00 +19°C° 0 mm 2 mps 740 mmHg 56%
18:00 +17°C° 0 mm 2 mps 740 mmHg 61%
19:00 +17°C° 0 mm 2 mps 740 mmHg 63%
20:00 +16°C° 0 mm 2 mps 740 mmHg 66%
21:00 +16°C° 0 mm 2 mps 741 mmHg 68%
22:00 +16°C° 0 mm 2 mps 741 mmHg 72%
23:00 +16°C° 0 mm 2 mps 741 mmHg 77%

29 September, Wednesday

Time Temperature Precipitation Wind Pressure Humidity
00:00 +16°C° 0 mm 2 mps 741 mmHg 81%
01:00 +16°C° 0 mm 2 mps 741 mmHg 82%
02:00 +16°C° 0 mm 2 mps 741 mmHg 84%
03:00 +16°C° 0 mm 2 mps 741 mmHg 85%
04:00 +16°C° 0 mm 2 mps 741 mmHg 86%
05:00 +16°C° 0 mm 2 mps 742 mmHg 87%
06:00 +14°C° 0 mm 3 mps 742 mmHg 87%
07:00 +17°C° 0 mm 3 mps 743 mmHg 78%
08:00 +19°C° 0 mm 3 mps 743 mmHg 70%
09:00 +21°C° 0 mm 3 mps 743 mmHg 61%
10:00 +22°C° 0 mm 3 mps 743 mmHg 55%
11:00 +24°C° 0 mm 3 mps 743 mmHg 49%
12:00 +25°C° 0 mm 3 mps 743 mmHg 43%
13:00 +25°C° 0 mm 3 mps 743 mmHg 42%
14:00 +25°C° 0 mm 4 mps 743 mmHg 41%
15:00 +25°C° 0 mm 4 mps 743 mmHg 41%
16:00 +22°C° 0 mm 3 mps 743 mmHg 47%
17:00 +20°C° 0 mm 3 mps 743 mmHg 53%
18:00 +19°C° 0 mm 3 mps 743 mmHg 59%
19:00 +19°C° 0 mm 3 mps 744 mmHg 62%
20:00 +18°C° 0 mm 3 mps 744 mmHg 65%
21:00 +18°C° 0 mm 3 mps 744 mmHg 67%
22:00 +18°C° 0 mm 3 mps 744 mmHg 69%
23:00 +18°C° 0 mm 3 mps 744 mmHg 70%

30 September, Thursday

Time Temperature Precipitation Wind Pressure Humidity
00:00 +17°C° 0 mm 3 mps 745 mmHg 72%
01:00 +17°C° 0 mm 3 mps 745 mmHg 75%
02:00 +17°C° 0 mm 3 mps 745 mmHg 77%
03:00 +16°C° 0 mm 3 mps 745 mmHg 80%
04:00 +16°C° 0 mm 3 mps 745 mmHg 80%
05:00 +16°C° 0 mm 3 mps 745 mmHg 80%
06:00 +16°C° 0 mm 3 mps 746 mmHg 80%
07:00 +17°C° 0 mm 3 mps 746 mmHg 71%
08:00 +19°C° 0 mm 3 mps 746 mmHg 63%
09:00 +20°C° 0 mm 3 mps 747 mmHg 55%
10:00 +21°C° 0 mm 3 mps 747 mmHg 51%
11:00 +24°C° 0 mm 3 mps 747 mmHg 47%
12:00 +25°C° 0 mm 3 mps 747 mmHg 44%
13:00 +24°C° 0 mm 3 mps 746 mmHg 45%
14:00 +24°C° 0 mm 3 mps 746 mmHg 46%
15:00 +24°C° 0 mm 3 mps 746 mmHg 47%
16:00 +22°C° 0 mm 3 mps 746 mmHg 51%
17:00 +20°C° 0 mm 2 mps 746 mmHg 56%
18:00 +19°C° 0 mm 2 mps 746 mmHg 61%
19:00 +19°C° 0 mm 2 mps 747 mmHg 63%
20:00 +19°C° 0 mm 2 mps 747 mmHg 66%
21:00 +19°C° 0 mm 3 mps 747 mmHg 68%
22:00 +18°C° 0 mm 3 mps 747 mmHg 70%
23:00 +18°C° 0 mm 2 mps 747 mmHg 71%

1 October, Friday

Time Temperature Precipitation Wind Pressure Humidity
00:00 +18°C° 0 mm 2 mps 747 mmHg 73%
01:00 +18°C° 0 mm 2 mps 747 mmHg 73%
02:00 +17°C° 0 mm 2 mps 747 mmHg 74%
03:00 +17°C° 0 mm 3 mps 747 mmHg 75%
04:00 +17°C° 0 mm 2 mps 748 mmHg 74%
05:00 +17°C° 0 mm 2 mps 748 mmHg 74%
06:00 +16°C° 0 mm 2 mps 748 mmHg 73%
07:00 +18°C° 0 mm 2 mps 748 mmHg 68%
08:00 +19°C° 0 mm 3 mps 749 mmHg 62%
09:00 +20°C° 0 mm 3 mps 749 mmHg 57%
10:00 +21°C° 0 mm 3 mps 749 mmHg 52%
11:00 +22°C° 0 mm 3 mps 749 mmHg 48%
12:00 +24°C° 0 mm 3 mps 749 mmHg 44%
13:00 +25°C° 0 mm 3 mps 748 mmHg 43%
14:00 +25°C° 0 mm 3 mps 748 mmHg 42%
15:00 +25°C° 0 mm 3 mps 747 mmHg 41%
16:00 +24°C° 0 mm 3 mps 747 mmHg 46%
17:00 +21°C° 0 mm 2 mps 747 mmHg 50%
18:00 +20°C° 0 mm 2 mps 747 mmHg 55%
19:00 +20°C° 0 mm 2 mps 747 mmHg 56%
20:00 +19°C° 0 mm 2 mps 747 mmHg 57%
21:00 +19°C° 0 mm 2 mps 747 mmHg 58%
22:00 +19°C° 0 mm 2 mps 747 mmHg 58%
23:00 +19°C° 0 mm 2 mps 747 mmHg 57%
Show more

We Need Your Consent

Meteoprog and our Service Providers may store and access personal data such as cookies, device identifiers or other similar technologies on your device and process such data to personalise content and ads, as well as provide social media features and to analyse the traffic.

  • Store and/or access information on your device

    Cookies, device identifiers or other information can be stored or accessed on your device for the purposes indicated above.

  • Personalised ads and content, ad and content measurement, audience insights, and products development

    Ads and content can be personalised based on a profile. More data can be added to better personalise ads and content. Ad and content performance can be measured. Insights about the audience who saw the ads and content can be derived. Such data can be used to develop or improve user’s experience, systems and software.

By clicking ‘I Agree’ you will allow the use of indicated cookies, device identifiers, web beacons or other similar technologies. Your settings can be changed in the browser on your device.

For certain purposes, legitimate interests may be relied on, rather than consent. You can read more about this in our Privacy and Cookie Policy.